Year,Month,Day,Hour,Minute,Value (Times are PST for temperature in C)
2018,04,23,00,00,4.70
2018,04,23,00,01,4.70
2018,04,23,00,02,4.70
2018,04,23,00,03,4.80
2018,04,23,00,04,4.80
2018,04,23,00,05,4.80
2018,04,23,00,06,4.70
2018,04,23,00,07,4.70
2018,04,23,00,08,4.70
2018,04,23,00,09,4.70
2018,04,23,00,10,4.70
2018,04,23,00,11,4.70
2018,04,23,00,12,4.60
2018,04,23,00,13,4.60
2018,04,23,00,14,4.60
2018,04,23,00,15,4.60
2018,04,23,00,16,4.70
2018,04,23,00,17,4.70
2018,04,23,00,18,4.70
2018,04,23,00,19,4.70
2018,04,23,00,20,4.70
2018,04,23,00,21,4.80
2018,04,23,00,22,4.80
2018,04,23,00,23,4.80
2018,04,23,00,24,4.80
2018,04,23,00,25,4.80
2018,04,23,00,26,4.80
2018,04,23,00,27,4.90
2018,04,23,00,28,4.90
2018,04,23,00,29,4.90
2018,04,23,00,30,4.90
2018,04,23,00,31,4.90
2018,04,23,00,32,4.90
2018,04,23,00,33,4.90
2018,04,23,00,34,4.90
2018,04,23,00,35,4.90
2018,04,23,00,36,4.80
2018,04,23,00,37,4.80
2018,04,23,00,38,4.80
2018,04,23,00,39,4.80
2018,04,23,00,40,4.80
2018,04,23,00,41,4.80
2018,04,23,00,42,4.80
2018,04,23,00,43,4.80
2018,04,23,00,44,4.80
2018,04,23,00,45,4.80
2018,04,23,00,46,4.70
2018,04,23,00,47,4.80
2018,04,23,00,48,4.70
2018,04,23,00,49,4.70
2018,04,23,00,50,4.70
2018,04,23,00,51,4.70
2018,04,23,00,52,4.70
2018,04,23,00,53,4.70
2018,04,23,00,54,4.70
2018,04,23,00,55,4.70
2018,04,23,00,56,4.70
2018,04,23,00,57,4.70
2018,04,23,00,58,4.70
2018,04,23,00,59,4.70
2018,04,23,01,00,4.70
2018,04,23,01,01,4.70
2018,04,23,01,02,4.70
2018,04,23,01,03,4.70
2018,04,23,01,04,4.70
2018,04,23,01,05,4.80
2018,04,23,01,06,4.80
2018,04,23,01,07,4.80
2018,04,23,01,08,4.80
2018,04,23,01,09,4.80
2018,04,23,01,10,4.80
2018,04,23,01,11,4.80
2018,04,23,01,12,4.80
2018,04,23,01,13,4.80
2018,04,23,01,14,4.80
2018,04,23,01,15,4.80
2018,04,23,01,16,4.80
2018,04,23,01,17,4.80
2018,04,23,01,18,4.80
2018,04,23,01,19,4.80
2018,04,23,01,20,4.80
2018,04,23,01,21,4.70
2018,04,23,01,22,4.70
2018,04,23,01,23,4.70
2018,04,23,01,24,4.70
2018,04,23,01,25,4.70
2018,04,23,01,26,4.70
2018,04,23,01,27,4.70
2018,04,23,01,28,4.70
2018,04,23,01,29,4.70
2018,04,23,01,30,4.70
2018,04,23,01,31,4.60
2018,04,23,01,32,4.60
2018,04,23,01,33,4.60
2018,04,23,01,34,4.60
2018,04,23,01,35,4.50
2018,04,23,01,36,4.50
2018,04,23,01,37,4.40
2018,04,23,01,38,4.30
2018,04,23,01,39,4.30
2018,04,23,01,40,4.30
2018,04,23,01,41,4.20
2018,04,23,01,42,4.20
2018,04,23,01,43,4.10
2018,04,23,01,44,4.00
2018,04,23,01,45,3.90
2018,04,23,01,46,3.80
2018,04,23,01,47,3.70
2018,04,23,01,48,3.60
2018,04,23,01,49,3.50
2018,04,23,01,50,3.50
2018,04,23,01,51,3.40
2018,04,23,01,52,3.40
2018,04,23,01,53,3.30
2018,04,23,01,54,3.30
2018,04,23,01,55,3.30
2018,04,23,01,56,3.30
2018,04,23,01,57,3.30
2018,04,23,01,58,3.30
2018,04,23,01,59,3.30
2018,04,23,02,00,3.30
2018,04,23,02,01,3.30
2018,04,23,02,02,3.30
2018,04,23,02,03,3.30
2018,04,23,02,04,3.40
2018,04,23,02,05,3.40
2018,04,23,02,06,3.50
2018,04,23,02,07,3.50
2018,04,23,02,08,3.50
2018,04,23,02,09,3.60
2018,04,23,02,10,3.60
2018,04,23,02,11,3.60
2018,04,23,02,12,3.60
2018,04,23,02,13,3.60
2018,04,23,02,14,3.60
2018,04,23,02,15,3.60
2018,04,23,02,16,3.60
2018,04,23,02,17,3.60
2018,04,23,02,18,3.60
2018,04,23,02,19,3.60
2018,04,23,02,20,3.60
2018,04,23,02,21,3.60
2018,04,23,02,22,3.60
2018,04,23,02,23,3.60
2018,04,23,02,24,3.60
2018,04,23,02,25,3.60
2018,04,23,02,26,3.50
2018,04,23,02,27,3.50
2018,04,23,02,28,3.50
2018,04,23,02,29,3.40
2018,04,23,02,30,3.40
2018,04,23,02,31,3.40
2018,04,23,02,32,3.40
2018,04,23,02,33,3.40
2018,04,23,02,34,3.40
2018,04,23,02,35,3.30
2018,04,23,02,36,3.30
2018,04,23,02,37,3.30
2018,04,23,02,38,3.30
2018,04,23,02,39,3.30
2018,04,23,02,40,3.30
2018,04,23,02,41,3.30
2018,04,23,02,42,3.30
2018,04,23,02,43,3.30
2018,04,23,02,44,3.30
2018,04,23,02,45,3.30
2018,04,23,02,46,3.30
2018,04,23,02,47,3.30
2018,04,23,02,48,3.30
2018,04,23,02,49,3.30
2018,04,23,02,50,3.30
2018,04,23,02,51,3.30
2018,04,23,02,52,3.30
2018,04,23,02,53,3.30
2018,04,23,02,54,3.20
2018,04,23,02,55,3.20
2018,04,23,02,56,3.20
2018,04,23,02,57,3.20
2018,04,23,02,58,3.20
2018,04,23,02,59,3.20
2018,04,23,03,00,3.20
2018,04,23,03,01,3.20
2018,04,23,03,02,3.20
2018,04,23,03,03,3.20
2018,04,23,03,04,3.20
2018,04,23,03,05,3.30
2018,04,23,03,06,3.30
2018,04,23,03,07,3.30
2018,04,23,03,08,3.30
2018,04,23,03,09,3.40
2018,04,23,03,10,3.40
2018,04,23,03,11,3.40
2018,04,23,03,12,3.50
2018,04,23,03,13,3.50
2018,04,23,03,14,3.60
2018,04,23,03,15,3.60
2018,04,23,03,16,3.60
2018,04,23,03,17,3.60
2018,04,23,03,18,3.50
2018,04,23,03,19,3.40
2018,04,23,03,20,3.40
2018,04,23,03,21,3.30
2018,04,23,03,22,3.30
2018,04,23,03,23,3.20
2018,04,23,03,24,3.20
2018,04,23,03,25,3.20
2018,04,23,03,26,3.20
2018,04,23,03,27,3.20
2018,04,23,03,28,3.20
2018,04,23,03,29,3.10
2018,04,23,03,30,3.10
2018,04,23,03,31,3.10
2018,04,23,03,32,3.10
2018,04,23,03,33,3.10
2018,04,23,03,34,3.10
2018,04,23,03,35,3.10
2018,04,23,03,36,3.10
2018,04,23,03,37,3.10
2018,04,23,03,38,3.10
2018,04,23,03,39,3.10
2018,04,23,03,40,3.10
2018,04,23,03,41,3.10
2018,04,23,03,42,3.10
2018,04,23,03,43,3.10
2018,04,23,03,44,3.10
2018,04,23,03,45,3.10
2018,04,23,03,46,3.10
2018,04,23,03,47,3.10
2018,04,23,03,48,3.10
2018,04,23,03,49,3.10
2018,04,23,03,50,3.00
2018,04,23,03,51,3.00
2018,04,23,03,52,3.10
2018,04,23,03,53,3.10
2018,04,23,03,54,3.10
2018,04,23,03,55,3.20
2018,04,23,03,56,3.20
2018,04,23,03,57,3.20
2018,04,23,03,58,3.30
2018,04,23,03,59,3.30
2018,04,23,04,00,3.30
2018,04,23,04,01,3.40
2018,04,23,04,02,3.40
2018,04,23,04,03,3.40
2018,04,23,04,04,3.40
2018,04,23,04,05,3.40
2018,04,23,04,06,3.40
2018,04,23,04,07,3.40
2018,04,23,04,08,3.40
2018,04,23,04,09,3.40
2018,04,23,04,10,3.40
2018,04,23,04,11,3.40
2018,04,23,04,12,3.40
2018,04,23,04,13,3.30
2018,04,23,04,14,3.30
2018,04,23,04,15,3.30
2018,04,23,04,16,3.30
2018,04,23,04,17,3.20
2018,04,23,04,18,3.20
2018,04,23,04,19,3.20
2018,04,23,04,20,3.10
2018,04,23,04,21,3.10
2018,04,23,04,22,3.10
2018,04,23,04,23,3.10
2018,04,23,04,24,3.10
2018,04,23,04,25,3.00
2018,04,23,04,26,3.00
2018,04,23,04,27,3.00
2018,04,23,04,28,3.00
2018,04,23,04,29,3.00
2018,04,23,04,30,3.10
2018,04,23,04,31,3.10
2018,04,23,04,32,3.20
2018,04,23,04,33,3.20
2018,04,23,04,34,3.30
2018,04,23,04,35,3.30
2018,04,23,04,36,3.30
2018,04,23,04,37,3.30
2018,04,23,04,38,3.30
2018,04,23,04,39,3.40
2018,04,23,04,40,3.40
2018,04,23,04,41,3.40
2018,04,23,04,42,3.40
2018,04,23,04,43,3.40
2018,04,23,04,44,3.40
2018,04,23,04,45,3.40
2018,04,23,04,46,3.50
2018,04,23,04,47,3.50
2018,04,23,04,48,3.50
2018,04,23,04,49,3.60
2018,04,23,04,50,3.60
2018,04,23,04,51,3.60
2018,04,23,04,52,3.70
2018,04,23,04,53,3.70
2018,04,23,04,54,3.70
2018,04,23,04,55,3.70
2018,04,23,04,56,3.70
2018,04,23,04,57,3.80
2018,04,23,04,58,3.80
2018,04,23,04,59,3.80
2018,04,23,05,00,3.80
2018,04,23,05,01,3.80
2018,04,23,05,02,3.80
2018,04,23,05,03,3.80
2018,04,23,05,04,3.80
2018,04,23,05,05,3.80
2018,04,23,05,06,3.80
2018,04,23,05,07,3.80
2018,04,23,05,08,3.80
2018,04,23,05,09,3.90
2018,04,23,05,10,3.90
2018,04,23,05,11,3.90
2018,04,23,05,12,4.00
2018,04,23,05,13,4.10
2018,04,23,05,14,4.10
2018,04,23,05,15,4.20
2018,04,23,05,16,4.30
2018,04,23,05,17,4.40
2018,04,23,05,18,4.50
2018,04,23,05,19,4.70
2018,04,23,05,20,4.80
2018,04,23,05,21,5.00
2018,04,23,05,22,5.10
2018,04,23,05,23,5.20
2018,04,23,05,24,5.40
2018,04,23,05,25,5.60
2018,04,23,05,26,5.80
2018,04,23,05,27,5.90
2018,04,23,05,28,6.00
2018,04,23,05,29,6.10
2018,04,23,05,30,6.10
2018,04,23,05,31,6.20
2018,04,23,05,32,6.30
2018,04,23,05,33,6.30
2018,04,23,05,34,6.40
2018,04,23,05,35,6.50
2018,04,23,05,36,6.60
2018,04,23,05,37,6.70
2018,04,23,05,38,6.80
2018,04,23,05,39,6.90
2018,04,23,05,40,7.00
2018,04,23,05,41,7.10
2018,04,23,05,42,7.10
2018,04,23,05,43,7.20
2018,04,23,05,44,7.20
2018,04,23,05,45,7.20
2018,04,23,05,46,7.20
2018,04,23,05,47,7.30
2018,04,23,05,48,7.30
2018,04,23,05,49,7.40
2018,04,23,05,50,7.40
2018,04,23,05,51,7.50
2018,04,23,05,52,7.50
2018,04,23,05,53,7.60
2018,04,23,05,54,7.60
2018,04,23,05,55,7.60
2018,04,23,05,56,7.60
2018,04,23,05,57,7.60
2018,04,23,05,58,7.60
2018,04,23,05,59,7.70
2018,04,23,06,00,7.70
2018,04,23,06,01,7.70
2018,04,23,06,02,7.70
2018,04,23,06,03,7.80
2018,04,23,06,04,7.80
2018,04,23,06,05,7.80
2018,04,23,06,06,7.80
2018,04,23,06,07,7.90
2018,04,23,06,08,7.90
2018,04,23,06,09,7.90
2018,04,23,06,10,7.90
2018,04,23,06,11,7.90
2018,04,23,06,12,7.90
2018,04,23,06,13,8.00
2018,04,23,06,14,8.00
2018,04,23,06,15,8.00
2018,04,23,06,16,8.00
2018,04,23,06,17,8.10
2018,04,23,06,18,8.10
2018,04,23,06,19,8.10
2018,04,23,06,20,8.20
2018,04,23,06,21,8.20
2018,04,23,06,22,8.20
2018,04,23,06,23,8.20
2018,04,23,06,24,8.20
2018,04,23,06,25,8.20
2018,04,23,06,26,8.20
2018,04,23,06,27,8.20
2018,04,23,06,28,8.20
2018,04,23,06,29,8.20
2018,04,23,06,30,8.20
2018,04,23,06,31,8.10
2018,04,23,06,32,8.10
2018,04,23,06,33,8.10
2018,04,23,06,34,8.10
2018,04,23,06,35,8.10
2018,04,23,06,36,8.10
2018,04,23,06,37,8.10
2018,04,23,06,38,8.10
2018,04,23,06,39,8.10
2018,04,23,06,40,8.10
2018,04,23,06,41,8.10
2018,04,23,06,42,8.10
2018,04,23,06,43,8.10
2018,04,23,06,44,8.10
2018,04,23,06,45,8.10
2018,04,23,06,46,8.10
2018,04,23,06,47,8.10
2018,04,23,06,48,8.10
2018,04,23,06,49,8.20
2018,04,23,06,50,8.20
2018,04,23,06,51,8.20
2018,04,23,06,52,8.30
2018,04,23,06,53,8.30
2018,04,23,06,54,8.30
2018,04,23,06,55,8.30
2018,04,23,06,56,8.40
2018,04,23,06,57,8.40
2018,04,23,06,58,8.40
2018,04,23,06,59,8.50
2018,04,23,07,00,8.50
2018,04,23,07,01,8.50
2018,04,23,07,02,8.50
2018,04,23,07,03,8.60
2018,04,23,07,04,8.60
2018,04,23,07,05,8.60
2018,04,23,07,06,8.60
2018,04,23,07,07,8.60
2018,04,23,07,08,8.60
2018,04,23,07,09,8.60
2018,04,23,07,10,8.70
2018,04,23,07,11,8.70
2018,04,23,07,12,8.70
2018,04,23,07,13,8.70
2018,04,23,07,14,8.80
2018,04,23,07,15,8.80
2018,04,23,07,16,8.80
2018,04,23,07,17,8.90
2018,04,23,07,18,8.90
2018,04,23,07,19,9.00
2018,04,23,07,20,9.00
2018,04,23,07,21,9.10
2018,04,23,07,22,9.20
2018,04,23,07,23,9.20
2018,04,23,07,24,9.30
2018,04,23,07,25,9.40
2018,04,23,07,26,9.40
2018,04,23,07,27,9.50
2018,04,23,07,28,9.50
2018,04,23,07,29,9.60
2018,04,23,07,30,9.60
2018,04,23,07,31,9.60
2018,04,23,07,32,9.70
2018,04,23,07,33,9.70
2018,04,23,07,34,9.70
2018,04,23,07,35,9.80
2018,04,23,07,36,9.80
2018,04,23,07,37,9.80
2018,04,23,07,38,9.90
2018,04,23,07,39,9.90
2018,04,23,07,40,9.90
2018,04,23,07,41,10.00
2018,04,23,07,42,10.00
2018,04,23,07,43,10.00
2018,04,23,07,44,10.00
2018,04,23,07,45,10.00
2018,04,23,07,46,9.90
2018,04,23,07,47,9.90
2018,04,23,07,48,9.90
2018,04,23,07,49,9.90
2018,04,23,07,50,9.90
2018,04,23,07,51,9.90
2018,04,23,07,52,9.90
2018,04,23,07,53,9.90
2018,04,23,07,54,10.00
2018,04,23,07,55,10.00
2018,04,23,07,56,10.00
2018,04,23,07,57,10.10
2018,04,23,07,58,10.10
2018,04,23,07,59,10.10
2018,04,23,08,00,10.10
2018,04,23,08,01,10.10
2018,04,23,08,02,10.20
2018,04,23,08,03,10.10
2018,04,23,08,04,10.10
2018,04,23,08,05,10.10
2018,04,23,08,06,10.10
2018,04,23,08,07,10.10
2018,04,23,08,08,10.10
2018,04,23,08,09,10.10
2018,04,23,08,10,10.10
2018,04,23,08,11,10.10
2018,04,23,08,12,10.10
2018,04,23,08,13,10.10
2018,04,23,08,14,10.10
2018,04,23,08,15,10.20
2018,04,23,08,16,10.30
2018,04,23,08,17,10.30
2018,04,23,08,18,10.40
2018,04,23,08,19,10.40
2018,04,23,08,20,10.40
2018,04,23,08,21,10.50
2018,04,23,08,22,10.50
2018,04,23,08,23,10.50
2018,04,23,08,24,10.50
2018,04,23,08,25,10.60
2018,04,23,08,26,10.60
2018,04,23,08,27,10.60
2018,04,23,08,28,10.70
2018,04,23,08,29,10.70
2018,04,23,08,30,10.70
2018,04,23,08,31,10.70
2018,04,23,08,32,10.80
2018,04,23,08,33,10.80
2018,04,23,08,34,10.80
2018,04,23,08,35,10.80
2018,04,23,08,36,10.80
2018,04,23,08,37,10.80
2018,04,23,08,38,10.80
2018,04,23,08,39,10.80
2018,04,23,08,40,10.80
2018,04,23,08,41,10.90
2018,04,23,08,42,10.80
2018,04,23,08,43,10.80
2018,04,23,08,44,10.80
2018,04,23,08,45,10.80
2018,04,23,08,46,10.90
2018,04,23,08,47,10.90
2018,04,23,08,48,10.90
2018,04,23,08,49,10.90
2018,04,23,08,50,10.80
2018,04,23,08,51,10.80
2018,04,23,08,52,10.80
2018,04,23,08,53,10.90
2018,04,23,08,54,10.90
2018,04,23,08,55,10.90
2018,04,23,08,56,11.00
2018,04,23,08,57,11.00
2018,04,23,08,58,11.00
2018,04,23,08,59,11.10
2018,04,23,09,00,11.10
2018,04,23,09,01,11.20
2018,04,23,09,02,11.20
2018,04,23,09,03,11.30
2018,04,23,09,04,11.30
2018,04,23,09,05,11.20
2018,04,23,09,06,11.20
2018,04,23,09,07,11.20
2018,04,23,09,08,11.20
2018,04,23,09,09,11.20
2018,04,23,09,10,11.30
2018,04,23,09,11,11.30
2018,04,23,09,12,11.30
2018,04,23,09,13,11.30
2018,04,23,09,14,11.20
2018,04,23,09,15,11.20
2018,04,23,09,16,11.20
2018,04,23,09,17,11.30
2018,04,23,09,18,11.30
2018,04,23,09,19,11.30
2018,04,23,09,20,11.30
2018,04,23,09,21,11.30
2018,04,23,09,22,11.30
2018,04,23,09,23,11.30
2018,04,23,09,24,11.30
2018,04,23,09,25,11.30
2018,04,23,09,26,11.30
2018,04,23,09,27,11.30
2018,04,23,09,28,11.30
2018,04,23,09,29,11.40
2018,04,23,09,30,11.40
2018,04,23,09,31,11.40
2018,04,23,09,32,11.40
2018,04,23,09,33,11.40
2018,04,23,09,34,11.40
2018,04,23,09,35,11.40
2018,04,23,09,36,11.40
2018,04,23,09,37,11.50
2018,04,23,09,38,11.50
2018,04,23,09,39,11.60
2018,04,23,09,40,11.60
2018,04,23,09,41,11.60
2018,04,23,09,42,11.60
2018,04,23,09,43,11.60
2018,04,23,09,44,11.70
2018,04,23,09,45,11.70
2018,04,23,09,46,11.70
2018,04,23,09,47,11.70
2018,04,23,09,48,11.70
2018,04,23,09,49,11.70
2018,04,23,09,50,11.70
2018,04,23,09,51,11.70
2018,04,23,09,52,11.80
2018,04,23,09,53,11.90
2018,04,23,09,54,11.90
2018,04,23,09,55,11.90
2018,04,23,09,56,11.90
2018,04,23,09,57,11.80
2018,04,23,09,58,11.80
2018,04,23,09,59,11.80
2018,04,23,10,00,11.90
2018,04,23,10,01,11.90
2018,04,23,10,02,11.90
2018,04,23,10,03,11.90
2018,04,23,10,04,11.90
2018,04,23,10,05,11.90
2018,04,23,10,06,11.80
2018,04,23,10,07,11.80
2018,04,23,10,08,11.90
2018,04,23,10,09,11.90
2018,04,23,10,10,11.90
2018,04,23,10,11,11.90
2018,04,23,10,12,11.90
2018,04,23,10,13,11.90
2018,04,23,10,14,12.00
2018,04,23,10,15,12.00
2018,04,23,10,16,11.90
2018,04,23,10,17,11.90
2018,04,23,10,18,12.00
2018,04,23,10,19,12.00
2018,04,23,10,20,12.10
2018,04,23,10,21,12.10
2018,04,23,10,22,12.30
2018,04,23,10,23,12.40
2018,04,23,10,24,12.40
2018,04,23,10,25,12.40
2018,04,23,10,26,12.50
2018,04,23,10,27,12.50
2018,04,23,10,28,12.60
2018,04,23,10,29,12.70
2018,04,23,10,30,12.60
2018,04,23,10,31,12.50
2018,04,23,10,32,12.50
2018,04,23,10,33,12.40
2018,04,23,10,34,12.30
2018,04,23,10,35,12.20
2018,04,23,10,36,12.20
2018,04,23,10,37,12.10
2018,04,23,10,38,12.10
2018,04,23,10,39,12.10
2018,04,23,10,40,12.10
2018,04,23,10,41,12.10
2018,04,23,10,42,12.10
2018,04,23,10,43,12.10
2018,04,23,10,44,12.00
2018,04,23,10,45,11.90
2018,04,23,10,46,11.80
2018,04,23,10,47,11.80
2018,04,23,10,48,11.80
2018,04,23,10,49,11.80
2018,04,23,10,50,11.90
2018,04,23,10,51,12.00
2018,04,23,10,52,12.10
2018,04,23,10,53,12.10
2018,04,23,10,54,12.10
2018,04,23,10,55,12.10
2018,04,23,10,56,12.10
2018,04,23,10,57,12.00
2018,04,23,10,58,11.90
2018,04,23,10,59,11.90
2018,04,23,11,00,11.90
2018,04,23,11,01,11.90
2018,04,23,11,02,12.00
2018,04,23,11,03,12.10
2018,04,23,11,04,12.20
2018,04,23,11,05,12.20
2018,04,23,11,06,12.20
2018,04,23,11,07,12.10
2018,04,23,11,08,12.10
2018,04,23,11,09,12.00
2018,04,23,11,10,12.10
2018,04,23,11,11,12.10
2018,04,23,11,12,12.10
2018,04,23,11,13,12.20
2018,04,23,11,14,12.30
2018,04,23,11,15,12.40
2018,04,23,11,16,12.50
2018,04,23,11,17,12.70
2018,04,23,11,18,12.70
2018,04,23,11,19,12.70
2018,04,23,11,20,12.70
2018,04,23,11,21,12.60
2018,04,23,11,22,12.60
2018,04,23,11,23,12.60
2018,04,23,11,24,12.60
2018,04,23,11,25,12.50
2018,04,23,11,26,12.40
2018,04,23,11,27,12.50
2018,04,23,11,28,12.50
2018,04,23,11,29,12.60
2018,04,23,11,30,12.70
2018,04,23,11,31,12.80
2018,04,23,11,32,12.90
2018,04,23,11,33,13.00
2018,04,23,11,34,13.00
2018,04,23,11,35,13.10
2018,04,23,11,36,13.20
2018,04,23,11,37,13.30
2018,04,23,11,38,13.30
2018,04,23,11,39,13.20
2018,04,23,11,40,13.20
2018,04,23,11,41,13.20
2018,04,23,11,42,13.20
2018,04,23,11,43,13.20
2018,04,23,11,44,13.10
2018,04,23,11,45,13.10
2018,04,23,11,46,13.10
2018,04,23,11,47,13.20
2018,04,23,11,48,13.20
2018,04,23,11,49,13.20
2018,04,23,11,50,13.30
2018,04,23,11,51,13.30
2018,04,23,11,52,13.30
2018,04,23,11,53,13.20
2018,04,23,11,54,13.20
2018,04,23,11,55,13.30
2018,04,23,11,56,13.30
2018,04,23,11,57,13.30
2018,04,23,11,58,13.30
2018,04,23,11,59,13.20
2018,04,23,12,00,13.20
2018,04,23,12,01,13.20
2018,04,23,12,02,13.30
2018,04,23,12,03,13.30
2018,04,23,12,04,13.30
2018,04,23,12,05,13.40
2018,04,23,12,06,13.40
2018,04,23,12,07,13.40
2018,04,23,12,08,13.40
2018,04,23,12,09,13.30
2018,04,23,12,10,13.20
2018,04,23,12,11,13.10
2018,04,23,12,12,13.00
2018,04,23,12,13,13.00
2018,04,23,12,14,12.90
2018,04,23,12,15,12.90
2018,04,23,12,16,12.90
2018,04,23,12,17,13.00
2018,04,23,12,18,13.20
2018,04,23,12,19,13.20
2018,04,23,12,20,13.20
2018,04,23,12,21,13.20
2018,04,23,12,22,13.20
2018,04,23,12,23,13.20
2018,04,23,12,24,13.30
2018,04,23,12,25,13.40
2018,04,23,12,26,13.50
2018,04,23,12,27,13.50
2018,04,23,12,28,13.50
2018,04,23,12,29,13.50
2018,04,23,12,30,13.40
2018,04,23,12,31,13.40
2018,04,23,12,32,13.30
2018,04,23,12,33,13.40
2018,04,23,12,34,13.60
2018,04,23,12,35,13.70
2018,04,23,12,36,13.80
2018,04,23,12,37,13.90
2018,04,23,12,38,14.00
2018,04,23,12,39,14.10
2018,04,23,12,40,14.30
2018,04,23,12,41,14.40
2018,04,23,12,42,14.40
2018,04,23,12,43,14.30
2018,04,23,12,44,14.20
2018,04,23,12,45,14.20
2018,04,23,12,46,14.20
2018,04,23,12,47,14.10
2018,04,23,12,48,14.10
2018,04,23,12,49,14.10
2018,04,23,12,50,14.20
2018,04,23,12,51,14.20
2018,04,23,12,52,14.20
2018,04,23,12,53,14.30
2018,04,23,12,54,14.40
2018,04,23,12,55,14.40
2018,04,23,12,56,14.50
2018,04,23,12,57,14.60
2018,04,23,12,58,14.60
2018,04,23,12,59,14.50
2018,04,23,13,00,14.50
2018,04,23,13,01,14.60
2018,04,23,13,02,14.60
2018,04,23,13,03,14.60
2018,04,23,13,04,14.60
2018,04,23,13,05,14.70
2018,04,23,13,06,14.80
2018,04,23,13,07,14.80
2018,04,23,13,08,14.80
2018,04,23,13,09,14.80
2018,04,23,13,10,14.70
2018,04,23,13,11,14.70
2018,04,23,13,12,14.80
2018,04,23,13,13,14.80
2018,04,23,13,14,14.90
2018,04,23,13,15,15.00
2018,04,23,13,16,15.10
2018,04,23,13,17,15.20
2018,04,23,13,18,15.20
2018,04,23,13,19,15.10
2018,04,23,13,20,15.00
2018,04,23,13,21,14.90
2018,04,23,13,22,14.90
2018,04,23,13,23,15.00
2018,04,23,13,24,15.10
2018,04,23,13,25,15.20
2018,04,23,13,26,15.30
2018,04,23,13,27,15.30
2018,04,23,13,28,15.40
2018,04,23,13,29,15.40
2018,04,23,13,30,15.40
2018,04,23,13,31,15.30
2018,04,23,13,32,15.20
2018,04,23,13,33,15.20
2018,04,23,13,34,15.20
2018,04,23,13,35,15.30
2018,04,23,13,36,15.40
2018,04,23,13,37,15.40
2018,04,23,13,38,15.40
2018,04,23,13,39,15.30
2018,04,23,13,40,15.20
2018,04,23,13,41,15.20
2018,04,23,13,42,15.20
2018,04,23,13,43,15.30
2018,04,23,13,44,15.30
2018,04,23,13,45,15.30
2018,04,23,13,46,15.40
2018,04,23,13,47,15.40
2018,04,23,13,48,15.40
2018,04,23,13,49,15.40
2018,04,23,13,50,15.30
2018,04,23,13,51,15.20
2018,04,23,13,52,15.10
2018,04,23,13,53,15.10
2018,04,23,13,54,15.10
2018,04,23,13,55,15.10
2018,04,23,13,56,15.10
2018,04,23,13,57,15.20
2018,04,23,13,58,15.20
2018,04,23,13,59,15.30
2018,04,23,14,00,15.20
2018,04,23,14,01,15.10
2018,04,23,14,02,15.10
2018,04,23,14,03,15.10
2018,04,23,14,04,15.10
2018,04,23,14,05,15.10
2018,04,23,14,06,15.10
2018,04,23,14,07,15.10
2018,04,23,14,08,15.10
2018,04,23,14,09,15.20
2018,04,23,14,10,15.20
2018,04,23,14,11,15.30
2018,04,23,14,12,15.40
2018,04,23,14,13,15.50
2018,04,23,14,14,15.60
2018,04,23,14,15,15.60
2018,04,23,14,16,15.70
2018,04,23,14,17,15.80
2018,04,23,14,18,15.80
2018,04,23,14,19,15.90
2018,04,23,14,20,15.90
2018,04,23,14,21,15.90
2018,04,23,14,22,16.00
2018,04,23,14,23,16.00
2018,04,23,14,24,16.00
2018,04,23,14,25,16.00
2018,04,23,14,26,15.90
2018,04,23,14,27,15.90
2018,04,23,14,28,15.80
2018,04,23,14,29,15.80
2018,04,23,14,30,15.70
2018,04,23,14,31,15.50
2018,04,23,14,32,15.40
2018,04,23,14,33,15.50
2018,04,23,14,34,15.60
2018,04,23,14,35,15.60
2018,04,23,14,36,15.60
2018,04,23,14,37,15.60
2018,04,23,14,38,15.60
2018,04,23,14,39,15.50
2018,04,23,14,40,15.50
2018,04,23,14,41,15.50
2018,04,23,14,42,15.50
2018,04,23,14,43,15.50
2018,04,23,14,44,15.50
2018,04,23,14,45,15.50
2018,04,23,14,46,15.60
2018,04,23,14,47,15.60
2018,04,23,14,48,15.60
2018,04,23,14,49,15.70
2018,04,23,14,50,15.70
2018,04,23,14,51,15.70
2018,04,23,14,52,15.70
2018,04,23,14,53,15.70
2018,04,23,14,54,15.70
2018,04,23,14,55,15.60
2018,04,23,14,56,15.60
2018,04,23,14,57,15.60
2018,04,23,14,58,15.50
2018,04,23,14,59,15.50
2018,04,23,15,00,15.50
2018,04,23,15,01,15.50
2018,04,23,15,02,15.50
2018,04,23,15,03,15.60
2018,04,23,15,04,15.60
2018,04,23,15,05,15.70
2018,04,23,15,06,15.70
2018,04,23,15,07,15.70
2018,04,23,15,08,15.70
2018,04,23,15,09,15.70
2018,04,23,15,10,15.70
2018,04,23,15,11,15.70
2018,04,23,15,12,15.70
2018,04,23,15,13,15.60
2018,04,23,15,14,15.60
2018,04,23,15,15,15.50
2018,04,23,15,16,15.50
2018,04,23,15,17,15.60
2018,04,23,15,18,15.60
2018,04,23,15,19,15.60
2018,04,23,15,20,15.60
2018,04,23,15,21,15.60
2018,04,23,15,22,15.60
2018,04,23,15,23,15.60
2018,04,23,15,24,15.60
2018,04,23,15,25,15.70
2018,04,23,15,26,15.70
2018,04,23,15,27,15.70
2018,04,23,15,28,15.70
2018,04,23,15,29,15.80
2018,04,23,15,30,15.70
2018,04,23,15,31,15.70
2018,04,23,15,32,15.70
2018,04,23,15,33,15.70
2018,04,23,15,34,15.80
2018,04,23,15,35,15.80
2018,04,23,15,36,15.90
2018,04,23,15,37,15.90
2018,04,23,15,38,16.00
2018,04,23,15,39,16.00
2018,04,23,15,40,16.00
2018,04,23,15,41,16.00
2018,04,23,15,42,16.00
2018,04,23,15,43,16.00
2018,04,23,15,44,16.00
2018,04,23,15,45,16.10
2018,04,23,15,46,16.10
2018,04,23,15,47,16.10
2018,04,23,15,48,16.10
2018,04,23,15,49,16.20
2018,04,23,15,50,16.40
2018,04,23,15,51,16.50
2018,04,23,15,52,16.50
2018,04,23,15,53,16.50
2018,04,23,15,54,16.50
2018,04,23,15,55,16.60
2018,04,23,15,56,16.60
2018,04,23,15,57,16.70
2018,04,23,15,58,16.70
2018,04,23,15,59,16.70
2018,04,23,16,00,16.70
2018,04,23,16,01,16.60
2018,04,23,16,02,16.60
2018,04,23,16,03,16.60
2018,04,23,16,04,16.60
2018,04,23,16,05,16.60
2018,04,23,16,06,16.60
2018,04,23,16,07,16.60
2018,04,23,16,08,16.60
2018,04,23,16,09,16.60
2018,04,23,16,10,16.60
2018,04,23,16,11,16.50
2018,04,23,16,12,16.50
2018,04,23,16,13,16.50
2018,04,23,16,14,16.50
2018,04,23,16,15,16.60
2018,04,23,16,16,16.70
2018,04,23,16,17,16.80
2018,04,23,16,18,16.80
2018,04,23,16,19,16.80
2018,04,23,16,20,16.90
2018,04,23,16,21,16.90
2018,04,23,16,22,16.90
2018,04,23,16,23,17.00
2018,04,23,16,24,17.00
2018,04,23,16,25,16.90
2018,04,23,16,26,16.90
2018,04,23,16,27,16.80
2018,04,23,16,28,16.80
2018,04,23,16,29,16.80
2018,04,23,16,30,16.80
2018,04,23,16,31,16.80
2018,04,23,16,32,16.70
2018,04,23,16,33,16.70
2018,04,23,16,34,16.60
2018,04,23,16,35,16.60
2018,04,23,16,36,16.60
2018,04,23,16,37,16.60
2018,04,23,16,38,16.70
2018,04,23,16,39,16.80
2018,04,23,16,40,16.80
2018,04,23,16,41,16.90
2018,04,23,16,42,17.00
2018,04,23,16,43,17.10
2018,04,23,16,44,17.00
2018,04,23,16,45,17.00
2018,04,23,16,46,17.00
2018,04,23,16,47,17.10
2018,04,23,16,48,17.10
2018,04,23,16,49,17.10
2018,04,23,16,50,17.10
2018,04,23,16,51,17.10
2018,04,23,16,52,17.10
2018,04,23,16,53,17.20
2018,04,23,16,54,17.20
2018,04,23,16,55,17.30
2018,04,23,16,56,17.30
2018,04,23,16,57,17.40
2018,04,23,16,58,17.40
2018,04,23,16,59,17.40
2018,04,23,17,00,17.40
2018,04,23,17,01,17.30
2018,04,23,17,02,17.30
2018,04,23,17,03,17.40
2018,04,23,17,04,17.40
2018,04,23,17,05,17.40
2018,04,23,17,06,17.40
2018,04,23,17,07,17.40
2018,04,23,17,08,17.30
2018,04,23,17,09,17.30
2018,04,23,17,10,17.30
2018,04,23,17,11,17.30
2018,04,23,17,12,17.30
2018,04,23,17,13,17.30
2018,04,23,17,14,17.30
2018,04,23,17,15,17.30
2018,04,23,17,16,17.20
2018,04,23,17,17,17.20
2018,04,23,17,18,17.10
2018,04,23,17,19,17.00
2018,04,23,17,20,16.90
2018,04,23,17,21,16.90
2018,04,23,17,22,16.80
2018,04,23,17,23,16.80
2018,04,23,17,24,16.70
2018,04,23,17,25,16.70
2018,04,23,17,26,16.70
2018,04,23,17,27,16.60
2018,04,23,17,28,16.60
2018,04,23,17,29,16.60
2018,04,23,17,30,16.60
2018,04,23,17,31,16.60
2018,04,23,17,32,16.60
2018,04,23,17,33,16.60
2018,04,23,17,34,16.60
2018,04,23,17,35,16.60
2018,04,23,17,36,16.60
2018,04,23,17,37,16.60
2018,04,23,17,38,16.60
2018,04,23,17,39,16.60